User: anonymous   Login
Location: Unspecified
(0.0000°N, 0.0000°E)
Time: 06:08:52
(UTC+00:00)
Language:

Aussat K1 - Orbit

View from above orbital plane
View from above orbital plane
View from above satellite
View from above satellite

Ground track
Ground track

The orbit data is extracted from the following two-line orbital elements,

1 15993U 85076B   17323.50882584 -.00000360 +00000-0 +00000-0 0  9999
2 15993 015.3237 005.6303 0007635 278.4706 086.5609 00.99765348088351
Epoch (UTC): 19 November 2017 12:12:42
Eccentricity: 0.0007635
inclination: 15.3237°
perigee height: 35896 km
apogee height: 35961 km
right ascension of ascending node: 5.6303°
argument of perigee: 278.4706°
revolutions per day: 0.99765348
mean anomaly at epoch: 86.5609°
orbit number at epoch: 8835

The dashed part of the orbit path shows where the satellite is in the earth's shadow,  

DLR